CW7832 Weather Reports


Display with metric or nautical units.
time (UTC)temp
F
wind
direction
speed
MPH
gust
MPH
rain 1hr
in
rain 24hr
in
rain mn
in
humidity
%
barometer
mb
20210128145704 17 301 5.0 10.0 0.00 0.01 0.00 83 1027.4
20210128144705 17 266 6.0 12.0 0.00 0.01 0.00 81 1027.4
20210128143711 17 280 6.0 12.0 0.00 0.01 0.00 82 1027.4
20210128142704 17 285 7.0 12.0 0.00 0.01 0.00 82 1027.5
20210128141705 16 278 6.0 12.0 0.00 0.01 0.00 81 1027.4
20210128140710 16 296 6.0 11.0 0.00 0.01 0.00 80 1027.4
20210128135704 16 306 4.0 9.0 0.00 0.01 0.00 81 1027.4
20210128134707 15 276 4.0 8.0 0.00 0.01 0.00 80 1027.3
20210128133705 15 284 4.0 9.0 0.00 0.01 0.00 80 1027.0
20210128132709 15 290 4.0 8.0 0.00 0.01 0.00 80 1026.9
20210128131743 15 285 4.0 8.0 0.00 0.01 0.00 81 1026.9
20210128130705 15 304 5.0 14.0 0.00 0.01 0.00 81 1026.7
20210128125704 15 313 5.0 11.0 0.00 0.01 0.00 81 1026.4
20210128124709 15 280 6.0 11.0 0.00 0.01 0.00 81 1026.7
20210128123712 15 287 5.0 10.0 0.00 0.01 0.00 81 1026.4
20210128122741 16 286 5.0 12.0 0.00 0.01 0.00 81 1026.3
20210128121708 16 302 6.0 10.0 0.00 0.01 0.00 81 1026.1
20210128120705 16 312 7.0 14.0 0.00 0.01 0.00 80 1026.2
20210128115704 17 309 7.0 13.0 0.00 0.01 0.00 80 1026.1
20210128114705 17 308 7.0 13.0 0.00 0.01 0.00 81 1026.0
20210128113711 17 308 7.0 13.0 0.00 0.01 0.00 81 1025.9
20210128112706 17 295 9.0 17.0 0.00 0.01 0.00 81 1025.8
20210128111706 17 288 9.0 17.0 0.00 0.01 0.00 80 1025.5
20210128110707 18 317 8.0 13.0 0.00 0.01 0.00 80 1025.2
20210128105706 18 321 8.0 15.0 0.00 0.01 0.00 80 1025.2
20210128104708 18 44 6.0 15.0 0.00 0.01 0.00 81 1025.1
20210128103707 18 317 7.0 14.0 0.00 0.01 0.00 81 1024.9
20210128102706 18 313 5.0 11.0 0.00 0.01 0.00 81 1024.7
20210128101710 18 291 6.0 11.0 0.00 0.01 0.00 81 1024.6
20210128100713 18 313 6.0 11.0 0.00 0.01 0.00 81 1024.5
20210128095706 17 34 7.0 15.0 0.00 0.01 0.00 81 1024.4
20210128094706 17 39 7.0 13.0 0.00 0.01 0.00 82 1024.3
20210128093705 17 316 7.0 13.0 0.00 0.01 0.00 81 1024.1
20210128092707 16 305 6.0 12.0 0.00 0.01 0.00 81 1024.1
20210128091706 16 303 5.0 10.0 0.00 0.01 0.00 82 1023.9
20210128090705 15 321 4.0 9.0 0.00 0.01 0.00 83 1023.9
20210128085706 15 308 4.0 8.0 0.00 0.01 0.00 83 1023.8
20210128084706 15 301 3.0 6.0 0.00 0.01 0.00 82 1023.8
20210128083707 15 313 4.0 7.0 0.00 0.01 0.00 82 1023.7
20210128082705 15 288 4.0 8.0 0.00 0.01 0.00 82 1023.6
20210128081709 15 301 3.0 8.0 0.00 0.01 0.00 83 1023.6
20210128080711 15 314 3.0 6.0 0.00 0.01 0.00 81 1023.7
20210128075704 16 309 3.0 6.0 0.00 0.01 0.00 81 1023.6
20210128074712 16 320 3.0 7.0 0.00 0.01 0.00 80 1023.8
20210128073713 17 315 4.0 7.0 0.00 0.01 0.00 79 1023.8
20210128072705 17 315 5.0 11.0 0.00 0.01 0.00 79 1023.9
20210128071703 18 322 6.0 10.0 0.00 0.01 0.00 79 1023.8
20210128070704 18 320 7.0 10.0 0.00 0.01 0.00 79 1023.7
20210128065706 19 309 6.0 13.0 0.00 0.01 0.00 79 1023.7
20210128064708 19 45 7.0 15.0 0.00 0.01 0.00 80 1023.5
20210128063706 20 309 7.0 11.0 0.00 0.01 0.00 81 1023.6
20210128062705 20 299 7.0 11.0 0.00 0.01 0.00 82 1023.6
20210128061709 19 313 6.0 10.0 0.00 0.01 0.00 80 1023.6
20210128060708 20 318 6.0 13.0 0.00 0.01 0.00 80 1023.7
20210128055705 20 308 6.0 12.0 0.00 0.01 0.00 79 1023.7
20210128054711 20 320 6.0 12.0 0.00 0.01 0.00 79 1023.8
20210128053705 20 305 5.0 12.0 0.00 0.01 0.00 80 1023.8
20210128052704 20 318 5.0 9.0 0.00 0.01 0.00 80 1023.9
20210128051704 21 314 5.0 10.0 0.00 0.01 0.00 81 1023.9
20210128050704 20 306 5.0 10.0 0.00 0.01 0.00 82 1023.8
20210128045706 20 310 5.0 9.0 0.00 0.01 0.01 84 1023.8
20210128044703 20 283 4.0 12.0 0.00 0.01 0.01 85 1023.9
20210128043706 20 268 2.0 4.0 0.00 0.01 0.01 86 1023.9
20210128042705 20 278 2.0 6.0 0.00 0.01 0.01 86 1023.8
20210128041714 20 263 3.0 5.0 0.00 0.01 0.01 86 1023.7
20210128040704 20 262 3.0 5.0 0.00 0.01 0.01 85 1023.7
20210128035705 21 262 3.0 4.0 0.00 0.01 0.01 84 1023.6
20210128034707 21 273 3.0 5.0 0.00 0.01 0.01 83 1023.5
20210128033717 21 285 2.0 5.0 0.00 0.01 0.01 83 1023.3
20210128032703 21 291 3.0 6.0 0.00 0.01 0.01 83 1023.4
20210128031706 20 276 3.0 8.0 0.00 0.01 0.01 83 1023.3
20210128030708 20 286 4.0 7.0 0.00 0.01 0.01 83 1023.2
20210128025726 20 280 4.0 8.0 0.00 0.01 0.01 81 1023.1
20210128024817 21 283 4.0 9.0 0.00 0.01 0.01 80 1023.1
20210128023714 21 302 6.0 10.0 0.00 0.01 0.01 80 1023.1
20210128022707 22 286 6.0 12.0 0.00 0.01 0.01 79 1023.1
20210128021707 22 287 5.0 10.0 0.00 0.01 0.01 80 1023.0
20210128020709 22 280 5.0 9.0 0.00 0.01 0.01 79 1023.1
20210128015706 22 294 6.0 9.0 0.00 0.01 0.01 80 1023.1
20210128014717 21 278 5.0 10.0 0.00 0.01 0.01 79 1022.9
20210128013709 22 301 5.0 9.0 0.00 0.01 0.01 79 1022.8
20210128012704 22 286 5.0 11.0 0.00 0.01 0.01 78 1022.7
20210128011719 22 287 5.0 10.0 0.00 0.01 0.01 77 1022.8
20210128010706 22 304 6.0 12.0 0.00 0.01 0.01 76 1022.8
20210128005708 22 306 9.0 14.0 0.00 0.01 0.01 76 1022.8
20210128004753 23 280 6.0 15.0 0.00 0.01 0.01 78 1022.8
20210128003704 23 295 5.0 10.0 0.00 0.01 0.01 80 1022.8
20210128002705 23 319 6.0 11.0 0.00 0.01 0.01 79 1022.9
20210128001703 23 303 8.0 15.0 0.00 0.01 0.01 79 1022.7
20210128000816 23 39 8.0 14.0 0.00 0.01 0.01 79 1022.6
20210127235707 23 291 6.0 14.0 0.00 0.01 0.01 80 1022.5
20210127234704 23 308 5.0 11.0 0.00 0.01 0.01 83 1022.5
20210127233707 23 312 5.0 11.0 0.00 0.01 0.01 85 1022.5
20210127232709 23 303 5.0 9.0 0.00 0.01 0.01 86 1022.4
20210127231710 23 311 4.0 10.0 0.00 0.01 0.01 87 1022.3
20210127230703 23 39 2.0 6.0 0.00 0.01 0.01 88 1022.2
20210127225705 23 315 2.0 4.0 0.00 0.01 0.01 88 1022.1
20210127224706 23 300 3.0 7.0 0.00 0.01 0.01 87 1021.9
20210127223704 24 293 5.0 8.0 0.00 0.01 0.01 87 1022.0
20210127222705 24 317 2.0 8.0 0.00 0.01 0.01 84 1021.9
20210127221706 24 257 2.0 5.0 0.00 0.01 0.01 83 1021.9
20210127220705 24 252 2.0 5.0 0.00 0.01 0.01 82 1021.8
20210127215708 25 260 4.0 8.0 0.00 0.01 0.01 81 1021.6
20210127214706 25 303 5.0 10.0 0.00 0.01 0.01 79 1021.6
20210127213705 25 301 8.0 12.0 0.00 0.01 0.01 76 1021.4
20210127212704 26 303 5.0 10.0 0.00 0.01 0.01 75 1021.2
20210127211705 27 39 6.0 10.0 0.00 0.01 0.01 75 1021.1
20210127210709 26 43 6.0 11.0 0.00 0.01 0.01 78 1021.1
20210127205714 26 320 6.0 11.0 0.00 0.01 0.01 77 1021.2
20210127204710 26 304 6.0 11.0 0.00 0.01 0.01 79 1021.4
20210127203701 26 300 6.0 10.0 0.00 0.01 0.01 81 1021.2
20210127202706 26 294 5.0 10.0 0.00 0.01 0.01 83 1021.5
20210127201704 27 320 5.0 12.0 0.00 0.01 0.01 83 1021.6
20210127200658 27 298 7.0 12.0 0.00 0.01 0.01 82 1021.5
20210127195659 27 265 5.0 11.0 0.00 0.01 0.01 79 1021.2
20210127194659 27 258 6.0 12.0 0.00 0.01 0.01 78 1021.0
20210127193708 27 306 6.0 11.0 0.00 0.01 0.01 77 1020.9
20210127192700 26 282 7.0 12.0 0.00 0.01 0.01 80 1020.8
20210127191701 26 282 7.0 14.0 0.00 0.01 0.01 79 1021.1
20210127190702 26 311 4.0 10.0 0.00 0.01 0.01 79 1021.1
20210127185659 26 280 5.0 10.0 0.00 0.01 0.01 80 1021.2
20210127184654 26 302 5.0 10.0 0.00 0.01 0.01 79 1021.0
20210127183707 26 282 7.0 10.0 0.00 0.01 0.01 81 1020.8
20210127182659 26 299 8.0 14.0 0.01 0.01 0.01 82 1020.9
20210127181654 27 310 7.0 13.0 0.01 0.01 0.01 80 1020.8
20210127180701 26 299 7.0 13.0 0.01 0.01 0.01 81 1020.8
20210127175657 26 293 7.0 14.0 0.01 0.01 0.01 81 1020.7
20210127174702 27 300 6.0 12.0 0.01 0.01 0.01 81 1020.8
20210127173656 26 34 7.0 14.0 0.01 0.01 0.01 84 1020.8
20210127172704 26 58 5.0 13.0 0.00 0.00 0.00 83 1020.9
20210127171657 26 289 6.0 12.0 0.00 0.00 0.00 83 1020.9
20210127170707 27 313 7.0 11.0 0.00 0.00 0.00 83 1020.8
20210127165659 27 299 6.0 12.0 0.00 0.00 0.00 83 1020.9
20210127164659 27 318 7.0 12.0 0.00 0.00 0.00 82 1021.0
20210127163656 27 295 9.0 14.0 0.00 0.00 0.00 82 1021.0
20210127162654 27 309 8.0 14.0 0.00 0.00 0.00 82 1021.2
20210127161655 28 318 7.0 12.0 0.00 0.00 0.00 80 1021.4
20210127160651 28 278 8.0 14.0 0.00 0.00 0.00 81 1021.5
20210127155652 27 291 7.0 14.0 0.00 0.00 0.00 81 1021.7
20210127154700 27 279 8.0 13.0 0.00 0.00 0.00 81 1021.6
20210127153702 27 283 7.0 14.0 0.00 0.00 0.00 82 1021.4
20210127152655 27 287 5.0 11.0 0.00 0.00 0.00 82 1021.4
20210127151653 27 318 7.0 11.0 0.00 0.00 0.00 82 1021.1
20210127150647 26 295 7.0 13.0 0.00 0.00 0.00 83 1020.9